Current Conditions for Foresthill, CA. Sunny, Dry   
Visibility: 10 miles
Foresthill Advisory text: No Warning

  Summary / Temperature 

Current Temperature
38.6°F
3.7°C
(24/hr Ago)
40.1°F
(Apparent temp)
35.2°F
Cool
Wind Chill Graphs
38.6°F 
Wind Chill-Avg
38.3°F 3.5°C
 --- Virtual Temp: 39.9°F ---

 Temp Rate:

 24/hr Difference:

 Avg Running Temp:

 Todays High:

 Todays Low:

 Y-days High:

 Y-days Low:

 Todays WChill:

 Y-days WChill:

 Evapotranspiration:

-0.2°F/hr 

-1.5°F

38.6°F

41.1°F 12:00am

38.2°F 8:03am

51.0°F 3:14pm

38.8°F 6:42am

31.3°F 6:38am

33.7°F 2:48am

0.000 in

115' Above Ground

 Temperature:

 6'AGL VRS 115'AGL:

 Avg Running Temp:

 Humidity:

 Todays High:

 Todays Low:

 Y-days High:

 Y-days Low:

44.0°F 

+5.4°F

43.2°F

60% 

44.0°F 12:00am

42.0°F 4:57am

54.0°F 11:41am

42.0°F 5:16am

Temp & Humidity Graphs

  Wind 

Wind Speed

 Calm

Gusting to

 4.0 mph

Wind from E

99°  E

Calm

 Avg speed:

 Wind Run:

 Peak Gust:

Calm 

12.0 miles

  13.0 mph 1:13am

  Almanac  

Moon age: 5 days,8 hours,41 minutes,29%

Waxing Crescent
32%
Illuminated
5 days in cycle

 Moonrise:

 Moonset:

 Sunrise:

 Sunset:

 Solar Noon:

11:32am

10:37pm

7:07am

4:40pm

11:54am

1min 1s less daylight tomorrow 

  Solar Radiation 

(Current Solar)
  188 W/m2 (111%)
(Todays High)
 188 W/m2@8:33am
Feels like: 41°F in the sun

Rain

 Rain Today:

 Rain Rate (/hr):

 Rain last hour:

 Rain Yesterday:

 This Month:

 Season Total:

6 Days Since Last Rain Day

0.00 in

0.000 in

0.00 in

0.00 in

0.00 in

17.76 in

Updated Time

Updated: 12/5/16  8:33am

(Updated  sec ago)

Humidity & Barometer

 Humidity:

 Wetbulb:

 Dew Point:

 Barometer:

81% 

36.4°F 

33.3°F 

30.144 inHg 

 Baro Trend:  Steady 
Northern Calif
Preparedness
Fire 
Level 

    UV Index  

(Current UV)
0.0  None
(Todays High) @ 12:00am
0.0   None

Weather Underground 5 day Forecast

Mon Tue Wed Thu Fri
Mostly Cloudy Mostly Cloudy Chance Rain Rain Rain
Mostly Cloudy Mostly Cloudy Chance Rain Rain Rain
53° 49° 48° 53° 52°
33° 34° 39° 49° 43°

Foresthill Probe 2 Stats  
Foresthill Probe 2: is located on Thomas Street
at 3000 feet. The main Foresthill Weather site
is located on Melody ln at the 2860 foot elevation

Calm
37.1°F
2.8°C
Temp Rate:
-0.1°F
Calm
Gusting to
1.0 mph
(Humidity)
82%
Wind from SE
134°  SE
Updated: 05/12/16 - 08:31:27
 Todays High: 39.5°F 00:30
 Todays Low: 36.5°F 07:56
 Rain Today: 0.00 in
 Season Total: 19.47 in

Foresthill Wx: Monthly,Yearly, Highs and Lows 

Foresthill  
This Weather Data is coming from the main Foresthill
Weather site located on Melody ln at the 2860 foot
elevation
Not Foresthill Probe 2
Weather Data
Month
  High
Month
  Low
Year
High
Year
Low
Temp 53.1°F
12/3/16
35.1°F
12/2/16
96.7°F
7/27/16
28.4°F
2/1/16
Humidity 92%
12/4/16
40%
12/2/16
100%
1/6/16
12%
8/4/16
Heat Index 55.1°F
12/3/16
36.5°F
12/2/16
93.3°F
7/27/16
33.3°F
2/1/16
Wind Chill 53.1°F
12/3/16
24.4°F
12/2/16
96.7°F
7/27/16
15.8°F
2/1/16
Wind Gust 30 mph
12/2/16
0 mph
12/1/16
48 mph
2/17/16
0 mph
1/1/16
Barometer 30.34 in
12/3/16
30.11 in
12/1/16
30.56 in
2/3/16
29.44 in
2/17/16
ET 0.06 in
12/2/16
0.00 in
12/1/16
0.27 in
6/22/16
0.00 in
1/1/16
Dew Point 43.6°F
12/4/16
20.8°F
12/2/16
64.3°F
6/4/16
17.1°F
9/21/16
Infrared Satellite Regional Radar Satellite Imagery Sacramento,CA.  (click to enlarge)
NWS Weather Forecast - Summary
Updated: Monday, December 5, 2016 - 4:36am (PST)
Current Interstate Highway Conditions for I-80 & US-50

[I 80: IN THE SAN FRANCISCO BAY AREA - SOLANO CO]
no traffic restrictions are reported for this area.

[I 80: IN THE NORTHERN CALIFORNIA AREA & SIERRA NEVADA]
no traffic restrictions are reported for this area.

[US 50: IN THE NORTHERN CALIFORNIA AREA]
no traffic restrictions are reported for this area.
NWS Weather Forecast: Today and Tonight (Updated: 4:01 am PST Dec 5, 2016)
Today

Today: Mostly sunny, with a high near 50. East wind 5 to 7 mph becoming light and variable  in the morning.
Mostly Sunny


Hi 50 °F
NWS forecast: Mostly sunny, with a high near 50. East wind 5 to 7 mph becoming light and variable in the morning.
Tonight

Tonight: Partly cloudy, with a low around 30. East wind around 6 mph.
Partly Cloudy


Lo 30 °F
NWS forecast: Partly cloudy, with a low around 30. East wind around 6 mph.
YR.NO 10 Day Weather forecast
Last update: 12/05/2016 @ 00:46
Next update: 12/05/2016 @ 12:00
Provided by: 22
      Temperature Precipitation Pressure Wind  
Today
12/05/2016
10:00 13:00 48°F   30.06 inHg Light air from west-northwest 1 mph
  13:00 19:00 50°F   30.01 inHg Light breeze from west 5 mph
  19:00 01:00 37°F   30.01 inHg Light air from east 2 mph
    (Click to enlarge)
meteogram

    Forecast for next 9 days

      Temperature Precip Pressure Wind  
Tuesday
12/06/2016
01:00 07:00 28°F   30.01 inHg Light breeze from east-northeast 4 mph
  07:00 13:00 25°F   30.03 inHg Light breeze from east-northeast 4 mph
  13:00 19:00 41°F   30.03 inHg Light breeze from southwest 5 mph
  19:00 01:00 32°F   30.10 inHg Light air from east-northeast 3 mph
      Temperature Precip Pressure Wind  
Wednesday
12/07/2016
01:00 07:00 25°F   30.14 inHg Light breeze from east-northeast 7 mph
  07:00 13:00 27°F   30.12 inHg Light breeze from east-northeast 7 mph
  10:00 16:00 41°F   30.16 inHg Light air from south 2 mph
  16:00 22:00 39°F 0.07 in 30.19 inHg Light air from southwest 2 mph
  22:00 04:00 36°F 0.21 in 30.21 inHg Light air from east-southeast 3 mph
      Temperature Precip Pressure Wind  
Thursday
12/08/2016
04:00 10:00 37°F 0.34 in 30.18 inHg Light breeze from southeast 4 mph
  10:00 16:00 43°F 0.43 in 30.19 inHg Gentle breeze from south-southeast 10 mph
  16:00 22:00 45°F 0.88 in 30.16 inHg Gentle breeze from south-southeast 10 mph
  22:00 04:00 45°F 0.39 in 30.14 inHg Gentle breeze from south-southeast 11 mph
      Temperature Precip Pressure Wind  
Friday
12/09/2016
04:00 10:00 45°F 0.37 in 30.14 inHg Gentle breeze from south-southwest 9 mph
  10:00 16:00 45°F 0.22 in 30.21 inHg Gentle breeze from south-southwest 8 mph
  16:00 22:00 45°F 0.02 in 30.17 inHg Light breeze from southwest 6 mph
  22:00 04:00 41°F   30.22 inHg Light breeze from south 4 mph
      Temperature Precip Pressure Wind  
Saturday
12/10/2016
04:00 10:00 39°F   30.20 inHg Light air from southeast 2 mph
  10:00 16:00 39°F   30.19 inHg Light air from south-southeast 2 mph
  16:00 22:00 39°F   30.17 inHg Light breeze from southeast 4 mph
  22:00 04:00 37°F 0.03 in 30.15 inHg Light air from east-southeast 2 mph
      Temperature Precip Pressure Wind  
Sunday
12/11/2016
04:00 10:00 36°F 0.20 in 30.09 inHg Light air from east 3 mph
  10:00 16:00 37°F 0.19 in 30.09 inHg Light breeze from south-southwest 4 mph
  16:00 22:00 37°F   30.10 inHg Light breeze from southeast 6 mph
  22:00 04:00 37°F   30.19 inHg Light air from east-northeast 1 mph
      Temperature Precip Pressure Wind  
Monday
12/12/2016
04:00 10:00 30°F   30.21 inHg Light breeze from east-northeast 4 mph
  10:00 16:00 41°F   30.28 inHg Light air from east-northeast 2 mph
  16:00 22:00 43°F   30.22 inHg Light air from west 2 mph
  22:00 04:00 36°F   30.23 inHg Light breeze from east 5 mph
      Temperature Precip Pressure Wind  
Tuesday
12/13/2016
04:00 10:00 39°F 0.02 in 30.25 inHg Light breeze from east-northeast 4 mph
  10:00 16:00 43°F   30.30 inHg Light air from northeast 2 mph
  16:00 22:00 45°F   30.22 inHg Light breeze from east 4 mph
  22:00 04:00 43°F   30.19 inHg Light breeze from east 6 mph
      Temperature Precip Pressure Wind  
Wednesday
12/14/2016
04:00 10:00 43°F 0.09 in 30.15 inHg Light breeze from east-southeast 6 mph
  10:00 16:00 45°F 0.47 in 30.14 inHg Gentle breeze from south-southeast 11 mph

NOAA Local Storm Report
2 MILES NORTH OF BEAR VALLEY
DATE
11/29/2016
TIME
7:49 AM
COUNTY
ALPINE
STATE
CA
GEOGRAPHIC
38.49N 120.04W
SOURCE
PUBLIC
SNOW ESTIMATED AT 2.0 INCH
reported at bear valley ski resort. The duration of the snow event was 24 hours.
How Close Are We To this Month's Temperature Record ?
Updated Monday, Dec 5, 2016- 8:30:00 AM

Current Temperature: 38.6°F

December's High: Temperature Record 65.8°F - Set on Tue, Dec 17, 2013 - 1:22:00 PM
We are currently 27.2°F Less than this Month's record High

December's Low: Temperature Record 20.2°F - Set on Sun, Dec 8, 2013 - 7:26:00 AM
We are currently 18.4°F More than this Month's record Low

Weather History For Monday, December 5, 2016


On this Day - In Weather History ...
Data courtesy of weatherforyou.com
powered by Cumulus v1.9.3 (1059)
Ambient Weather VWS v14.00
Top Contact Website Map Copyright © 2007 - 2016 Foresthillweather.com Never base important decisions on this or any weather information obtained from the Internet